Dades meteomassalio
Diari Summary for Juny 6, 2017 Units:  English    Metric   Both
« Previous Day
Next Day »
Diari Semanal Mensual Anual Personalitzat
  Maxima: Minima: Mijana:
Temperatura: TemperatureC °F 12.4 °F 19.8 °F
Rosada: DewpointC °F 10.7 °F 11.9 °F
Humitat: Humidity % 42 % 63 %
Velocitat del vent: WindSpeedKMH mph 0.0 mph 18.4 mph
Racha vent: WindSpeedGustKMH mph - -
Vent:- - WNW
Pressio: PressurehPa in 1011.7 in -
Pluja: 0.0 in    
Historical Graphs
 
 
Tabular Data for Juny 6, 2017
Time Temperature Dew Point Pressure Wind Wind Speed Wind Gust Humidity Rainfall Rate (Hourly) solar Conditions
TemperatureC °F DewpointC °F PressurehPa in Calm     Humidity % HourlyPrecipMM in SolarRadiationWatts/m^2 W/m2 Conditions
00:04 15.8 °F 12.8 °F 1013.1 in Calm     82 % 0.0 in 0.0 W/m2 RA
00:09 15.7 °F 12.6 °F 1013.1 in Calm     82 % 0.0 in 0.0 W/m2 CLR
00:14 15.6 °F 12.7 °F 1013.1 in Calm     83 % 0.0 in 0.0 W/m2 CLR
00:19 15.5 °F 12.6 °F 1013.1 in Calm     83 % 0.0 in 0.0 W/m2 CLR
00:24 15.6 °F 12.5 °F 1013.1 in Calm     82 % 0.0 in 0.0 W/m2 CLR
00:29 15.8 °F 12.5 °F 1013.1 in Calm     81 % 0.0 in 0.0 W/m2 CLR
00:34 15.8 °F 12.3 °F 1013.1 in Calm     80 % 0.0 in 0.0 W/m2 CLR
00:39 15.7 °F 12.7 °F 1013.1 in Calm     82 % 0.0 in 0.0 W/m2 CLR
00:44 15.6 °F 12.5 °F 1013.1 in Calm     82 % 0.0 in 0.0 W/m2 CLR
00:49 15.4 °F 12.5 °F 1013.1 in Calm     83 % 0.0 in 0.0 W/m2 CLR
00:54 15.2 °F 12.3 °F 1013.1 in Calm     83 % 0.0 in 0.0 W/m2 CLR
00:59 15.0 °F 12.3 °F 1013.1 in Calm     84 % 0.0 in 0.0 W/m2 CLR
01:04 14.8 °F 12.3 °F 1013.1 in Calm     85 % 0.0 in 0.0 W/m2 CLR
01:09 14.7 °F 12.2 °F 1013.1 in Calm     85 % 0.0 in 0.0 W/m2 CLR
01:14 14.5 °F 12.2 °F 1012.8 in Calm     86 % 0.0 in 0.0 W/m2 CLR
01:19 14.4 °F 12.1 °F 1012.8 in Calm     86 % 0.0 in 0.0 W/m2 CLR
01:24 14.3 °F 12.2 °F 1012.8 in Calm     87 % 0.0 in 0.0 W/m2 CLR
01:29 14.3 °F 12.2 °F 1012.8 in Calm     87 % 0.0 in 0.0 W/m2 CLR
01:34 14.3 °F 12.2 °F 1012.8 in Calm     87 % 0.0 in 0.0 W/m2 CLR
01:39 14.2 °F 12.1 °F 1012.8 in Calm     87 % 0.0 in 0.0 W/m2 CLR
01:44 14.1 °F 11.9 °F 1012.8 in Calm     87 % 0.0 in 0.0 W/m2 CLR
01:49 14.0 °F 11.9 °F 1012.8 in Calm     87 % 0.0 in 0.0 W/m2 CLR
01:54 13.9 °F 12.0 °F 1012.8 in Calm     88 % 0.0 in 0.0 W/m2 CLR
01:59 13.9 °F 11.9 °F 1012.8 in Calm     88 % 0.0 in 0.0 W/m2 CLR
02:04 13.8 °F 11.8 °F 1012.8 in Calm     88 % 0.0 in 0.0 W/m2 CLR
02:09 13.7 °F 11.7 °F 1012.8 in Calm     88 % 0.0 in 0.0 W/m2 CLR
02:14 13.6 °F 11.8 °F 1012.8 in Calm     89 % 0.0 in 0.0 W/m2 CLR
02:19 13.6 °F 11.8 °F 1012.4 in Calm     89 % 0.0 in 0.0 W/m2 CLR
02:24 13.4 °F 11.7 °F 1012.4 in Calm     89 % 0.0 in 0.0 W/m2 CLR
02:29 13.4 °F 11.6 °F 1012.4 in Calm     89 % 0.0 in 0.0 W/m2 CLR
02:34 13.3 °F 11.5 °F 1012.4 in Calm     89 % 0.0 in 0.0 W/m2 CLR
02:39 13.2 °F 11.6 °F 1012.4 in Calm     90 % 0.0 in 0.0 W/m2 CLR
02:44 13.2 °F 11.6 °F 1012.4 in Calm     90 % 0.0 in 0.0 W/m2 CLR
02:49 13.2 °F 11.6 °F 1012.4 in Calm     90 % 0.0 in 0.0 W/m2 CLR
02:54 13.1 °F 11.5 °F 1012.4 in Calm     90 % 0.0 in 0.0 W/m2 CLR
02:59 13.1 °F 11.4 °F 1012.1 in Calm     90 % 0.0 in 0.0 W/m2 CLR
03:04 13.0 °F 11.4 °F 1012.4 in Calm     90 % 0.0 in 0.0 W/m2 CLR
03:09 12.9 °F 11.5 °F 1012.4 in Calm     91 % 0.0 in 0.0 W/m2 CLR
03:14 12.9 °F 11.4 °F 1012.4 in Calm     91 % 0.0 in 0.0 W/m2 CLR
03:19 12.8 °F 11.2 °F 1012.1 in Calm     90 % 0.0 in 0.0 W/m2 CLR
03:24 12.8 °F 11.3 °F 1012.1 in Calm     91 % 0.0 in 0.0 W/m2 CLR
03:25 12.8 °F 11.3 °F 1012.1 in Calm     91 % 0.0 in 0.0 W/m2 CLR
03:30 12.8 °F 11.4 °F 1012.1 in Calm     91 % 0.0 in 0.0 W/m2 CLR
03:35 12.8 °F 11.3 °F 1012.1 in Calm     91 % 0.0 in 0.0 W/m2 CLR
03:40 12.7 °F 11.3 °F 1012.1 in Calm     91 % 0.0 in 0.0 W/m2 CLR
03:45 12.6 °F 11.2 °F 1011.7 in Calm     91 % 0.0 in 0.0 W/m2 CLR
03:50 12.7 °F 11.3 °F 1011.7 in Calm     91 % 0.0 in 0.0 W/m2 CLR
03:55 12.8 °F 11.4 °F 1011.7 in Calm     91 % 0.0 in 0.0 W/m2 CLR
04:00 12.8 °F 11.4 °F 1011.7 in Calm     91 % 0.0 in 0.0 W/m2 CLR
04:05 12.8 °F 11.3 °F 1011.7 in Calm     91 % 0.0 in 0.0 W/m2 CLR
04:10 12.7 °F 11.3 °F 1011.7 in Calm     91 % 0.0 in 0.0 W/m2 CLR
04:15 12.7 °F 11.3 °F 1011.7 in Calm     91 % 0.0 in 0.0 W/m2 CLR
04:20 12.6 °F 11.2 °F 1011.7 in Calm     91 % 0.0 in 0.0 W/m2 CLR
04:25 12.6 °F 11.1 °F 1011.7 in Calm     91 % 0.0 in 0.0 W/m2 CLR
04:30 12.5 °F 11.1 °F 1011.7 in Calm     91 % 0.0 in 0.0 W/m2 CLR
04:35 12.5 °F 11.1 °F 1011.7 in Calm     91 % 0.0 in 0.0 W/m2 CLR
04:40 12.6 °F 11.1 °F 1011.7 in Calm     91 % 0.0 in 0.0 W/m2 CLR
04:45 12.5 °F 11.1 °F 1011.7 in Calm     91 % 0.0 in 0.0 W/m2 CLR
04:50 12.5 °F 11.1 °F 1011.7 in Calm     91 % 0.0 in 0.0 W/m2 CLR
04:51 12.5 °F 11.1 °F 1011.7 in Calm     91 % 0.0 in 0.0 W/m2 CLR
04:56 12.5 °F 11.1 °F 1011.7 in Calm     91 % 0.0 in 0.0 W/m2 CLR
05:01 12.5 °F 11.1 °F 1011.7 in Calm     91 % 0.0 in 0.0 W/m2 CLR
05:06 12.5 °F 11.1 °F 1011.7 in Calm     91 % 0.0 in 0.0 W/m2 CLR
05:11 12.4 °F 11.0 °F 1011.7 in Calm     91 % 0.0 in 0.0 W/m2 CLR
05:16 12.4 °F 10.9 °F 1011.7 in Calm     91 % 0.0 in 0.0 W/m2 CLR
05:21 12.4 °F 10.9 °F 1012.1 in Calm     91 % 0.0 in 0.0 W/m2 CLR
05:26 12.5 °F 11.2 °F 1012.1 in Calm     92 % 0.0 in 0.0 W/m2 CLR
05:31 12.7 °F 11.2 °F 1012.1 in Calm     91 % 0.0 in 0.0 W/m2 CLR
05:36 12.6 °F 11.2 °F 1012.1 in Calm     91 % 0.0 in 0.0 W/m2 CLR
05:41 12.6 °F 11.1 °F 1012.1 in Calm     91 % 0.0 in 0.0 W/m2 CLR
05:46 12.5 °F 11.1 °F 1012.1 in Calm     91 % 0.0 in 0.0 W/m2 CLR
05:51 12.5 °F 11.1 °F 1012.1 in Calm     91 % 0.0 in 0.0 W/m2 CLR
05:56 12.5 °F 11.1 °F 1012.1 in Calm     91 % 0.0 in 0.0 W/m2 CLR
06:01 12.4 °F 11.0 °F 1012.1 in Calm     91 % 0.0 in 0.0 W/m2 CLR
06:06 12.4 °F 10.9 °F 1012.1 in Calm     91 % 0.0 in 0.0 W/m2 CLR
06:11 12.5 °F 11.1 °F 1012.1 in Calm     91 % 0.0 in 0.0 W/m2 CLR
06:16 12.6 °F 11.1 °F 1012.1 in Calm     91 % 0.0 in 0.0 W/m2 CLR
06:21 12.8 °F 11.4 °F 1012.1 in West 18.5 mph 18.5 mph 91 % 0.0 in 5.0 W/m2 OVC
06:26 15.7 °F 11.7 °F 1012.1 in WSW 18.5 mph 18.5 mph 77 % 0.0 in 7.0 W/m2 OVC
06:31 17.2 °F 11.3 °F 1012.1 in West 18.5 mph 18.5 mph 68 % 0.0 in 9.0 W/m2 BKN
06:36 17.7 °F 10.8 °F 1012.4 in WSW 16.1 mph 16.1 mph 64 % 0.0 in 11.0 W/m2 BKN
06:41 17.9 °F 10.8 °F 1012.4 in WSW 14.8 mph 14.8 mph 63 % 0.0 in 14.0 W/m2 BKN
06:46 17.9 °F 10.8 °F 1012.4 in West 11.1 mph 11.1 mph 63 % 0.0 in 16.0 W/m2 BKN
06:52 17.9 °F 10.7 °F 1012.8 in WSW 9.3 mph 9.3 mph 63 % 0.0 in 19.0 W/m2 BKN
06:57 17.8 °F 10.9 °F 1012.4 in WSW 9.3 mph 9.3 mph 64 % 0.0 in 19.0 W/m2 BKN
06:58 17.7 °F 10.8 °F 1012.8 in WSW 9.3 mph 9.3 mph 64 % 0.0 in 21.0 W/m2 BKN
07:03 17.4 °F 10.8 °F 1012.8 in WSW 9.3 mph 9.3 mph 65 % 0.0 in 26.0 W/m2 BKN
07:08 17.3 °F 10.9 °F 1012.8 in SW 5.6 mph 5.6 mph 66 % 0.0 in 40.0 W/m2 BKN
07:13 17.5 °F 10.8 °F 1012.8 in West 8.0 mph 8.0 mph 65 % 0.0 in 53.0 W/m2 SCT
07:18 17.6 °F 11.3 °F 1013.1 in WNW 9.7 mph 9.7 mph 67 % 0.0 in 65.0 W/m2 SCT
07:23 17.9 °F 11.1 °F 1013.1 in West 16.1 mph 16.1 mph 64 % 0.0 in 79.0 W/m2 FEW
07:24 18.0 °F 11.1 °F 1013.1 in West 16.7 mph 16.7 mph 64 % 0.0 in 83.0 W/m2 FEW
07:29 18.6 °F 11.2 °F 1013.1 in West 11.1 mph 11.1 mph 62 % 0.0 in 97.0 W/m2 FEW
07:34 18.9 °F 11.2 °F 1013.1 in West 11.3 mph 11.3 mph 61 % 0.0 in 111.0 W/m2 CLR
07:39 19.1 °F 11.2 °F 1013.1 in WSW 18.5 mph 18.5 mph 60 % 0.0 in 121.0 W/m2 CLR
07:44 19.3 °F 11.1 °F 1013.1 in West 24.1 mph 24.1 mph 59 % 0.0 in 134.0 W/m2 CLR
07:49 19.5 °F 11.0 °F 1013.1 in WSW 25.9 mph 25.9 mph 58 % 0.0 in 149.0 W/m2 CLR
07:54 19.6 °F 11.1 °F 1013.1 in West 22.5 mph 22.5 mph 58 % 0.0 in 167.0 W/m2 CLR
07:59 19.7 °F 11.2 °F 1013.1 in West 13.0 mph 13.0 mph 58 % 0.0 in 183.0 W/m2 CLR
08:04 19.8 °F 11.3 °F 1013.1 in West 22.2 mph 22.2 mph 58 % 0.0 in 197.0 W/m2 CLR
08:09 19.9 °F 11.4 °F 1013.4 in West 13.0 mph 13.0 mph 58 % 0.0 in 223.0 W/m2 CLR
08:14 20.0 °F 11.5 °F 1013.4 in West 20.9 mph 20.9 mph 58 % 0.0 in 250.0 W/m2 CLR
08:19 20.1 °F 11.8 °F 1013.4 in WNW 25.9 mph 25.9 mph 59 % 0.0 in 264.0 W/m2 CLR
08:24 20.1 °F 11.6 °F 1013.4 in NW 29.6 mph 29.6 mph 58 % 0.0 in 269.0 W/m2 CLR
08:29 20.1 °F 11.8 °F 1013.4 in WNW 16.7 mph 16.7 mph 59 % 0.0 in 279.0 W/m2 CLR
08:34 20.2 °F 11.9 °F 1013.8 in WNW 14.8 mph 14.8 mph 59 % 0.0 in 301.0 W/m2 CLR
08:39 20.3 °F 12.3 °F 1013.8 in WNW 20.9 mph 20.9 mph 60 % 0.0 in 316.0 W/m2 CLR
08:44 20.3 °F 12.1 °F 1013.8 in NW 27.8 mph 27.8 mph 59 % 0.0 in 325.0 W/m2 CLR
08:49 20.4 °F 12.1 °F 1013.8 in WNW 25.9 mph 25.9 mph 59 % 0.0 in 343.0 W/m2 CLR
08:54 20.4 °F 11.8 °F 1013.8 in NNW 29.6 mph 29.6 mph 58 % 0.0 in 357.0 W/m2 CLR
08:59 20.6 °F 12.3 °F 1013.8 in NW 22.5 mph 22.5 mph 59 % 0.0 in 376.0 W/m2 CLR
09:04 20.7 °F 12.4 °F 1013.8 in NNW 22.2 mph 22.2 mph 59 % 0.0 in 394.0 W/m2 CLR
09:09 20.8 °F 12.2 °F 1013.8 in WNW 31.5 mph 31.5 mph 58 % 0.0 in 278.0 W/m2 CLR
09:10 20.8 °F 12.2 °F 1013.8 in WNW 27.8 mph 27.8 mph 58 % 0.0 in 401.0 W/m2 CLR
09:15 20.8 °F 12.3 °F 1014.1 in WNW 22.5 mph 22.5 mph 58 % 0.0 in 396.0 W/m2 CLR
09:20 20.9 °F 12.1 °F 1014.1 in NW 33.8 mph 33.8 mph 57 % 0.0 in 436.0 W/m2 CLR
09:25 20.9 °F 12.1 °F 1014.1 in NW 29.6 mph 29.6 mph 57 % 0.0 in 436.0 W/m2 CLR
09:30 21.1 °F 12.5 °F 1013.8 in NW 24.1 mph 24.1 mph 58 % 0.0 in 464.0 W/m2 CLR
09:35 21.2 °F 12.3 °F 1013.8 in WNW 31.5 mph 31.5 mph 57 % 0.0 in 489.0 W/m2 CLR
09:40 21.1 °F 12.8 °F 1013.8 in WNW 27.8 mph 27.8 mph 59 % 0.0 in 429.0 W/m2 CLR
09:45 21.1 °F 12.4 °F 1013.8 in NNW 35.2 mph 35.2 mph 58 % 0.0 in 522.0 W/m2 CLR
09:50 21.1 °F 12.5 °F 1013.8 in NW 33.3 mph 33.3 mph 58 % 0.0 in 517.0 W/m2 CLR
09:55 21.1 °F 12.3 °F 1013.8 in NW 31.5 mph 31.5 mph 57 % 0.0 in 548.0 W/m2 CLR
10:00 21.3 °F 12.7 °F 1014.1 in NNW 29.6 mph 29.6 mph 58 % 0.0 in 547.0 W/m2 CLR
10:05 21.4 °F 12.6 °F 1013.8 in NW 25.9 mph 25.9 mph 57 % 0.0 in 559.0 W/m2 CLR
10:10 21.5 °F 12.1 °F 1013.8 in NW 35.2 mph 35.2 mph 55 % 0.0 in 585.0 W/m2 CLR
10:15 21.6 °F 12.4 °F 1014.1 in NNW 31.5 mph 31.5 mph 56 % 0.0 in 582.0 W/m2 CLR
10:20 21.7 °F 12.5 °F 1013.8 in NW 31.5 mph 31.5 mph 56 % 0.0 in 603.0 W/m2 CLR
10:25 21.8 °F 12.6 °F 1013.8 in NW 40.7 mph 40.7 mph 56 % 0.0 in 642.0 W/m2 CLR
10:30 21.9 °F 13.3 °F 1013.8 in WNW 29.6 mph 29.6 mph 58 % 0.0 in 649.0 W/m2 CLR
10:35 21.9 °F 12.5 °F 1013.8 in NW 33.3 mph 33.3 mph 55 % 0.0 in 657.0 W/m2 CLR
10:40 21.9 °F 12.4 °F 1013.8 in NNW 33.3 mph 33.3 mph 55 % 0.0 in 677.0 W/m2 CLR
10:46 22.0 °F 13.1 °F 1013.8 in NNW 29.6 mph 29.6 mph 57 % 0.0 in 659.0 W/m2 CLR
10:51 22.2 °F 13.5 °F 1013.8 in NW 25.9 mph 25.9 mph 58 % 0.0 in 691.0 W/m2 CLR
10:56 22.2 °F 13.0 °F 1013.8 in NW 33.3 mph 33.3 mph 56 % 0.0 in 701.0 W/m2 CLR
11:01 22.1 °F 13.2 °F 1013.8 in NNW 35.2 mph 35.2 mph 57 % 0.0 in 717.0 W/m2 CLR
11:06 22.3 °F 13.3 °F 1013.8 in NNW 31.5 mph 31.5 mph 57 % 0.0 in 708.0 W/m2 CLR
11:11 22.3 °F 13.6 °F 1013.8 in NW 31.5 mph 31.5 mph 58 % 0.0 in 700.0 W/m2 CLR
11:16 22.2 °F 13.0 °F 1014.1 in NW 33.3 mph 33.3 mph 56 % 0.0 in 754.0 W/m2 CLR
11:21 22.4 °F 13.2 °F 1014.1 in NW 22.2 mph 22.2 mph 56 % 0.0 in 758.0 W/m2 CLR
11:26 22.4 °F 12.9 °F 1014.1 in NNW 40.7 mph 40.7 mph 55 % 0.0 in 765.0 W/m2 CLR
11:31 22.4 °F 12.6 °F 1014.1 in NW 35.2 mph 35.2 mph 54 % 0.0 in 795.0 W/m2 CLR
11:36 22.4 °F 13.2 °F 1014.1 in NNW 22.2 mph 22.2 mph 56 % 0.0 in 800.0 W/m2 CLR
11:41 22.6 °F 12.8 °F 1014.1 in WNW 31.5 mph 31.5 mph 54 % 0.0 in 810.0 W/m2 CLR
11:46 22.6 °F 12.6 °F 1014.1 in NW 29.6 mph 29.6 mph 53 % 0.0 in 814.0 W/m2 CLR
11:51 22.6 °F 12.8 °F 1014.1 in NW 37.0 mph 37.0 mph 54 % 0.0 in 821.0 W/m2 CLR
11:56 22.6 °F 12.3 °F 1014.4 in NW 42.6 mph 42.6 mph 52 % 0.0 in 819.0 W/m2 CLR
12:01 22.7 °F 12.9 °F 1014.1 in NW 42.6 mph 42.6 mph 54 % 0.0 in 851.0 W/m2 CLR
12:06 22.6 °F 12.8 °F 1014.4 in WNW 38.9 mph 38.9 mph 54 % 0.0 in 856.0 W/m2 CLR
12:11 22.6 °F 12.8 °F 1014.4 in NW 33.3 mph 33.3 mph 54 % 0.0 in 844.0 W/m2 CLR
12:16 22.8 °F 12.4 °F 1014.4 in NNW 32.2 mph 32.2 mph 52 % 0.0 in 856.0 W/m2 CLR
12:21 22.8 °F 12.7 °F 1014.8 in NNW 31.5 mph 31.5 mph 53 % 0.0 in 867.0 W/m2 CLR
12:26 22.8 °F 13.1 °F 1014.8 in NW 29.6 mph 29.6 mph 54 % 0.0 in 844.0 W/m2 CLR
12:31 23.1 °F 12.9 °F 1014.4 in NW 31.5 mph 31.5 mph 53 % 0.0 in 877.0 W/m2 CLR
12:36 22.9 °F 13.1 °F 1014.4 in NW 38.6 mph 38.6 mph 54 % 0.0 in 898.0 W/m2 CLR
12:41 22.9 °F 13.7 °F 1014.4 in NNW 35.2 mph 35.2 mph 56 % 0.0 in 877.0 W/m2 CLR
12:46 23.1 °F 13.0 °F 1014.8 in NW 37.0 mph 37.0 mph 53 % 0.0 in 918.0 W/m2 CLR
12:51 23.2 °F 13.4 °F 1014.4 in North 33.3 mph 33.3 mph 54 % 0.0 in 918.0 W/m2 CLR
12:56 23.2 °F 13.3 °F 1014.8 in NNW 35.4 mph 35.4 mph 54 % 0.0 in 942.0 W/m2 CLR
13:01 23.2 °F 13.1 °F 1014.8 in NNW 31.5 mph 31.5 mph 53 % 0.0 in 930.0 W/m2 CLR
13:06 23.3 °F 13.2 °F 1014.8 in WNW 31.5 mph 31.5 mph 53 % 0.0 in 937.0 W/m2 CLR
13:11 23.6 °F 13.7 °F 1014.4 in NNW 25.9 mph 25.9 mph 54 % 0.0 in 933.0 W/m2 CLR
13:16 23.6 °F 12.9 °F 1014.4 in NNW 31.5 mph 31.5 mph 51 % 0.0 in 949.0 W/m2 CLR
13:21 23.8 °F 13.4 °F 1014.4 in WNW 31.5 mph 31.5 mph 52 % 0.0 in 956.0 W/m2 CLR
13:22 23.8 °F 13.1 °F 1014.4 in WNW 31.5 mph 31.5 mph 51 % 0.0 in 923.0 W/m2 CLR
13:27 23.9 °F 12.8 °F 1014.4 in NNW 24.1 mph 24.1 mph 50 % 0.0 in 939.0 W/m2 CLR
13:32 23.8 °F 12.7 °F 1014.8 in NW 40.7 mph 40.7 mph 50 % 0.0 in 914.0 W/m2 CLR
13:37 23.6 °F 12.3 °F 1014.4 in NNW 40.7 mph 40.7 mph 49 % 0.0 in 918.0 W/m2 CLR
13:42 23.6 °F 12.6 °F 1014.4 in NNW 33.3 mph 33.3 mph 50 % 0.0 in 958.0 W/m2 CLR
13:47 24.1 °F 12.7 °F 1014.4 in WNW 31.5 mph 31.7 mph 49 % 0.0 in 939.0 W/m2 CLR
13:52 24.3 °F 12.9 °F 1014.4 in NNW 37.0 mph 37.0 mph 49 % 0.0 in 953.0 W/m2 CLR
13:57 24.3 °F 12.6 °F 1014.4 in NNW 35.2 mph 35.2 mph 48 % 0.0 in 942.0 W/m2 CLR
14:02 24.3 °F 12.9 °F 1014.4 in NNW 35.2 mph 35.2 mph 49 % 0.0 in 914.0 W/m2 CLR
14:07 24.4 °F 12.4 °F 1014.8 in NNW 38.9 mph 38.9 mph 47 % 0.0 in 932.0 W/m2 CLR
14:12 24.4 °F 13.0 °F 1014.4 in NNW 22.5 mph 22.5 mph 49 % 0.0 in 976.0 W/m2 CLR
14:17 24.4 °F 12.1 °F 1014.4 in NNW 31.5 mph 31.5 mph 46 % 0.0 in 805.0 W/m2 CLR
14:22 24.4 °F 12.1 °F 1014.4 in NNW 29.6 mph 29.6 mph 46 % 0.0 in 965.0 W/m2 CLR
14:27 24.7 °F 13.2 °F 1014.8 in North 14.8 mph 14.8 mph 49 % 0.0 in 951.0 W/m2 CLR
14:32 25.0 °F 12.6 °F 1014.8 in NNW 27.8 mph 27.8 mph 46 % 0.0 in 954.0 W/m2 CLR
14:37 25.1 °F 13.6 °F 1014.8 in NNW 18.5 mph 18.5 mph 49 % 0.0 in 960.0 W/m2 CLR
14:42 25.2 °F 12.4 °F 1014.4 in NNW 27.8 mph 27.8 mph 45 % 0.0 in 947.0 W/m2 CLR
14:47 25.2 °F 12.4 °F 1014.4 in NW 27.8 mph 27.8 mph 45 % 0.0 in 965.0 W/m2 CLR
14:52 25.1 °F 12.3 °F 1014.4 in NW 20.4 mph 20.4 mph 45 % 0.0 in 830.0 W/m2 CLR
14:57 25.1 °F 12.3 °F 1014.8 in NNW 31.5 mph 31.5 mph 45 % 0.0 in 380.0 W/m2 CLR
15:02 24.8 °F 12.1 °F 1014.4 in NW 25.9 mph 25.9 mph 45 % 0.0 in 251.0 W/m2 CLR
15:08 24.6 °F 12.2 °F 1014.4 in NW 31.5 mph 31.5 mph 46 % 0.0 in 285.0 W/m2 CLR
15:13 24.7 °F 12.9 °F 1014.4 in North 20.4 mph 20.4 mph 48 % 0.0 in 956.0 W/m2 CLR
15:18 25.2 °F 12.7 °F 1014.4 in North 27.8 mph 27.8 mph 46 % 0.0 in 895.0 W/m2 CLR
15:22 25.2 °F 13.1 °F 1014.4 in NNW 20.4 mph 20.4 mph 47 % 0.0 in 907.0 W/m2 CLR
15:28 25.1 °F 12.3 °F 1014.4 in NNE 33.3 mph 33.3 mph 45 % 0.0 in 976.0 W/m2 CLR
15:33 25.0 °F 11.6 °F 1014.4 in NNW 27.8 mph 27.8 mph 43 % 0.0 in 933.0 W/m2 CLR
15:38 25.3 °F 13.2 °F 1014.4 in NW 18.5 mph 18.5 mph 47 % 0.0 in 919.0 W/m2 CLR
15:43 25.6 °F 11.7 °F 1014.4 in North 35.2 mph 35.2 mph 42 % 0.0 in 838.0 W/m2 CLR
15:48 25.4 °F 12.3 °F 1014.4 in NNW 25.9 mph 25.9 mph 44 % 0.0 in 856.0 W/m2 CLR
15:53 25.6 °F 12.1 °F 1014.4 in NNW 25.9 mph 25.9 mph 43 % 0.0 in 833.0 W/m2 CLR
15:58 25.7 °F 11.8 °F 1014.4 in WNW 31.5 mph 31.5 mph 42 % 0.0 in 812.0 W/m2 CLR
16:03 25.7 °F 12.2 °F 1014.4 in NW 25.9 mph 25.9 mph 43 % 0.0 in 842.0 W/m2 CLR
16:08 25.7 °F 12.2 °F 1014.4 in WNW 31.5 mph 31.5 mph 43 % 0.0 in 775.0 W/m2 CLR
16:13 25.4 °F 12.3 °F 1014.4 in NNW 18.5 mph 18.5 mph 44 % 0.0 in 851.0 W/m2 CLR
16:18 25.4 °F 11.9 °F 1014.4 in NNW 27.8 mph 27.8 mph 43 % 0.0 in 833.0 W/m2 CLR
16:23 25.4 °F 12.3 °F 1014.4 in North 37.0 mph 37.0 mph 44 % 0.0 in 780.0 W/m2 CLR
16:28 25.6 °F 12.7 °F 1014.4 in North 27.8 mph 27.8 mph 45 % 0.0 in 775.0 W/m2 CLR
16:33 25.7 °F 12.5 °F 1014.4 in NNW 24.1 mph 24.1 mph 44 % 0.0 in 770.0 W/m2 CLR
16:38 25.6 °F 12.4 °F 1014.4 in NW 24.1 mph 24.1 mph 44 % 0.0 in 875.0 W/m2 CLR
16:43 25.5 °F 12.7 °F 1014.8 in NW 27.8 mph 27.8 mph 45 % 0.0 in 338.0 W/m2 CLR
16:48 25.6 °F 12.8 °F 1014.8 in NNE 13.0 mph 13.0 mph 45 % 0.0 in 877.0 W/m2 CLR
16:53 26.0 °F 12.8 °F 1014.8 in WNW 22.5 mph 22.5 mph 44 % 0.0 in 798.0 W/m2 CLR
16:58 25.9 °F 12.3 °F 1014.8 in North 42.6 mph 42.6 mph 43 % 0.0 in 246.0 W/m2 CLR
17:03 25.4 °F 12.6 °F 1014.4 in NNW 16.7 mph 16.7 mph 45 % 0.0 in 798.0 W/m2 CLR
17:08 25.5 °F 12.7 °F 1014.8 in WNW 24.1 mph 24.1 mph 45 % 0.0 in 789.0 W/m2 CLR
17:13 25.7 °F 12.8 °F 1014.8 in NNW 31.5 mph 31.5 mph 45 % 0.0 in 772.0 W/m2 CLR
17:18 25.1 °F 12.3 °F 1014.8 in NNW 20.4 mph 20.4 mph 45 % 0.0 in 745.0 W/m2 CLR
17:23 25.3 °F 12.8 °F 1014.8 in NNW 24.1 mph 24.1 mph 46 % 0.0 in 694.0 W/m2 CLR
17:28 25.5 °F 12.7 °F 1014.8 in NNW 19.3 mph 19.3 mph 45 % 0.0 in 701.0 W/m2 CLR
17:33 25.5 °F 12.3 °F 1014.8 in NNW 29.6 mph 29.6 mph 44 % 0.0 in 642.0 W/m2 CLR
17:38 25.1 °F 12.3 °F 1014.8 in North 25.9 mph 25.9 mph 45 % 0.0 in 642.0 W/m2 CLR
17:43 25.2 °F 12.4 °F 1014.8 in North 29.6 mph 29.6 mph 45 % 0.0 in 608.0 W/m2 CLR
17:45 25.2 °F 12.8 °F 1014.8 in NNW 25.7 mph 25.7 mph 46 % 0.0 in 589.0 W/m2 CLR
17:50 25.4 °F 12.7 °F 1014.8 in NNW 27.8 mph 27.8 mph 45 % 0.0 in 596.0 W/m2 CLR
17:55 25.4 °F 12.6 °F 1014.8 in NW 29.6 mph 29.6 mph 45 % 0.0 in 566.0 W/m2 CLR
18:00 25.2 °F 12.4 °F 1014.8 in NNW 27.8 mph 27.8 mph 45 % 0.0 in 559.0 W/m2 CLR
18:05 25.2 °F 12.4 °F 1014.8 in WNW 31.5 mph 31.5 mph 45 % 0.0 in 513.0 W/m2 CLR
18:10 25.1 °F 12.3 °F 1014.8 in NNW 43.4 mph 43.4 mph 45 % 0.0 in 508.0 W/m2 CLR
18:15 24.9 °F 12.2 °F 1014.8 in NNW 31.5 mph 31.5 mph 45 % 0.0 in 513.0 W/m2 CLR
18:20 24.8 °F 12.4 °F 1014.8 in North 31.5 mph 31.5 mph 46 % 0.0 in 496.0 W/m2 CLR
18:25 24.9 °F 12.1 °F 1014.8 in NW 29.6 mph 29.6 mph 45 % 0.0 in 485.0 W/m2 CLR
18:30 24.9 °F 12.2 °F 1014.8 in NW 27.8 mph 27.8 mph 45 % 0.0 in 452.0 W/m2 CLR
18:35 24.8 °F 12.1 °F 1014.8 in NNW 31.5 mph 31.5 mph 45 % 0.0 in 431.0 W/m2 CLR
18:40 24.7 °F 12.6 °F 1014.8 in NNW 18.5 mph 18.5 mph 47 % 0.0 in 418.0 W/m2 CLR
18:45 24.8 °F 12.4 °F 1014.8 in NW 29.6 mph 29.6 mph 46 % 0.0 in 396.0 W/m2 CLR
18:50 24.7 °F 12.3 °F 1014.8 in North 31.5 mph 31.5 mph 46 % 0.0 in 374.0 W/m2 CLR
18:55 24.4 °F 12.1 °F 1015.1 in NNE 24.1 mph 24.1 mph 46 % 0.0 in 369.0 W/m2 CLR
19:00 24.4 °F 12.3 °F 1015.1 in WNW 20.9 mph 20.9 mph 47 % 0.0 in 380.0 W/m2 CLR
19:05 24.3 °F 12.3 °F 1015.1 in NW 33.3 mph 33.3 mph 47 % 0.0 in 360.0 W/m2 CLR
19:10 24.3 °F 12.2 °F 1015.1 in North 24.1 mph 24.1 mph 47 % 0.0 in 292.0 W/m2 CLR
19:15 24.2 °F 12.2 °F 1015.1 in NNW 22.5 mph 22.5 mph 47 % 0.0 in 294.0 W/m2 CLR
19:20 24.0 °F 12.0 °F 1015.1 in NW 30.6 mph 30.6 mph 47 % 0.0 in 294.0 W/m2 CLR
19:25 23.9 °F 11.9 °F 1015.1 in North 24.1 mph 24.1 mph 47 % 0.0 in 302.0 W/m2 CLR
19:30 23.8 °F 12.2 °F 1015.1 in NNW 25.9 mph 25.9 mph 48 % 0.0 in 271.0 W/m2 CLR
19:35 23.9 °F 11.9 °F 1015.5 in NW 22.2 mph 22.2 mph 47 % 0.0 in 265.0 W/m2 CLR
19:40 23.9 °F 12.2 °F 1015.5 in NNW 18.5 mph 18.5 mph 48 % 0.0 in 211.0 W/m2 CLR
19:45 23.7 °F 12.1 °F 1015.5 in NNW 20.9 mph 20.9 mph 48 % 0.0 in 214.0 W/m2 CLR
19:50 23.7 °F 12.0 °F 1015.5 in NW 18.5 mph 18.5 mph 48 % 0.0 in 199.0 W/m2 CLR
19:55 23.5 °F 11.8 °F 1015.5 in NNW 29.6 mph 29.6 mph 48 % 0.0 in 185.0 W/m2 CLR
20:00 23.2 °F 11.9 °F 1015.5 in NW 27.8 mph 27.8 mph 49 % 0.0 in 156.0 W/m2 CLR
20:05 23.1 °F 12.1 °F 1015.8 in NW 22.2 mph 22.2 mph 50 % 0.0 in 141.0 W/m2 CLR
20:10 23.0 °F 12.3 °F 1015.8 in WNW 20.4 mph 20.4 mph 51 % 0.0 in 135.0 W/m2 CLR
20:20 22.6 °F 11.9 °F 1015.8 in NNW 18.5 mph 18.5 mph 51 % 0.0 in 100.0 W/m2 CLR
20:25 22.6 °F 11.9 °F 1015.8 in WNW 24.1 mph 24.1 mph 51 % 0.0 in 95.0 W/m2 CLR
20:30 22.5 °F 11.8 °F 1015.8 in NNW 13.0 mph 13.0 mph 51 % 0.0 in 77.0 W/m2 FEW
20:35 22.3 °F 11.7 °F 1016.1 in NW 25.7 mph 25.7 mph 51 % 0.0 in 60.0 W/m2 SCT
20:40 22.1 °F 11.5 °F 1016.1 in WNW 29.6 mph 29.6 mph 51 % 0.0 in 44.0 W/m2 SCT
20:45 21.9 °F 11.6 °F 1016.1 in WNW 14.8 mph 14.8 mph 52 % 0.0 in 30.0 W/m2 BKN
20:50 21.8 °F 11.8 °F 1016.1 in NNW 19.3 mph 19.3 mph 53 % 0.0 in 32.0 W/m2 BKN
20:55 21.7 °F 11.9 °F 1016.5 in WNW 18.5 mph 18.5 mph 54 % 0.0 in 30.0 W/m2 BKN
21:00 21.6 °F 11.9 °F 1016.5 in NW 27.8 mph 27.8 mph 54 % 0.0 in 25.0 W/m2 BKN
21:05 21.4 °F 11.7 °F 1016.5 in NW 22.2 mph 22.2 mph 54 % 0.0 in 19.0 W/m2 BKN
21:10 21.2 °F 11.8 °F 1016.5 in WNW 22.2 mph 22.2 mph 55 % 0.0 in 18.0 W/m2 BKN
21:15 21.1 °F 11.7 °F 1016.8 in NW 20.9 mph 20.9 mph 55 % 0.0 in 14.0 W/m2 BKN
21:20 20.9 °F 11.5 °F 1016.8 in NW 18.5 mph 18.5 mph 55 % 0.0 in 11.0 W/m2 BKN
21:25 20.8 °F 11.7 °F 1016.8 in WNW 13.0 mph 13.0 mph 56 % 0.0 in 7.0 W/m2 BKN
21:30 20.6 °F 11.8 °F 1016.8 in NNW 16.1 mph 16.1 mph 57 % 0.0 in 5.0 W/m2 OVC
21:35 20.5 °F 11.4 °F 1016.8 in NW 25.9 mph 25.9 mph 56 % 0.0 in 5.0 W/m2 OVC
21:40 20.4 °F 11.3 °F 1016.8 in NNW 27.8 mph 27.8 mph 56 % 0.0 in 0.0 W/m2 CLR
21:45 20.3 °F 11.5 °F 1017.2 in NW 18.5 mph 18.5 mph 57 % 0.0 in 0.0 W/m2 CLR
21:50 20.1 °F 11.6 °F 1017.2 in NW 18.5 mph 18.5 mph 58 % 0.0 in 0.0 W/m2 CLR
21:55 19.9 °F 11.4 °F 1017.2 in NW 11.1 mph 11.1 mph 58 % 0.0 in 0.0 W/m2 CLR
22:00 19.8 °F 11.6 °F 1017.5 in NW 11.3 mph 11.3 mph 59 % 0.0 in 0.0 W/m2 CLR
22:05 19.8 °F 11.6 °F 1017.5 in NW 3.7 mph 3.7 mph 59 % 0.0 in 0.0 W/m2 CLR
22:10 19.7 °F 11.2 °F 1017.5 in NW 24.1 mph 24.1 mph 58 % 0.0 in 0.0 W/m2 CLR
22:15 19.6 °F 11.1 °F 1017.5 in NNW 18.5 mph 18.5 mph 58 % 0.0 in 0.0 W/m2 CLR
22:20 19.5 °F 11.3 °F 1017.8 in NNW 18.5 mph 18.5 mph 59 % 0.0 in 0.0 W/m2 CLR
22:25 19.4 °F 11.2 °F 1017.8 in NNW 18.5 mph 18.5 mph 59 % 0.0 in 0.0 W/m2 CLR
22:31 19.3 °F 11.1 °F 1018.2 in NW 20.4 mph 20.4 mph 59 % 0.0 in 0.0 W/m2 CLR
22:36 19.2 °F 11.3 °F 1018.2 in NNW 18.5 mph 18.5 mph 60 % 0.0 in 0.0 W/m2 CLR
22:41 19.1 °F 11.2 °F 1018.2 in NNW 14.5 mph 14.5 mph 60 % 0.0 in 0.0 W/m2 CLR
22:46 19.0 °F 11.1 °F 1018.5 in NW 13.0 mph 13.0 mph 60 % 0.0 in 0.0 W/m2 CLR
22:51 18.9 °F 11.2 °F 1018.5 in NNW 18.5 mph 18.5 mph 61 % 0.0 in 0.0 W/m2 CLR
22:56 18.8 °F 11.1 °F 1018.5 in North 18.5 mph 18.5 mph 61 % 0.0 in 0.0 W/m2 CLR
23:01 18.7 °F 11.1 °F 1018.5 in NW 20.9 mph 20.9 mph 61 % 0.0 in 0.0 W/m2 CLR
23:06 18.7 °F 11.0 °F 1018.8 in NW 22.2 mph 22.2 mph 61 % 0.0 in 0.0 W/m2 CLR
23:11 18.6 °F 10.9 °F 1018.8 in North 25.9 mph 25.9 mph 61 % 0.0 in 0.0 W/m2 CLR
23:16 18.4 °F 10.8 °F 1018.8 in NW 22.5 mph 22.5 mph 61 % 0.0 in 0.0 W/m2 CLR
23:21 18.4 °F 10.7 °F 1018.8 in North 22.2 mph 22.2 mph 61 % 0.0 in 0.0 W/m2 CLR
23:26 18.3 °F 10.9 °F 1018.8 in NNW 24.1 mph 24.1 mph 62 % 0.0 in 0.0 W/m2 CLR
23:31 18.2 °F 10.8 °F 1018.8 in NW 22.2 mph 22.2 mph 62 % 0.0 in 0.0 W/m2 CLR
23:36 18.1 °F 10.7 °F 1018.8 in NNW 27.8 mph 27.8 mph 62 % 0.0 in 0.0 W/m2 CLR
23:41 17.9 °F 10.8 °F 1019.2 in NW 22.2 mph 22.2 mph 63 % 0.0 in 0.0 W/m2 CLR
23:46 17.8 °F 10.9 °F 1019.2 in NW 1.9 mph 1.9 mph 64 % 0.0 in 0.0 W/m2 CLR
23:51 17.6 °F 10.9 °F 1019.2 in West 5.6 mph   65 % 0.0 in 0.0 W/m2 CLR
23:56 17.4 °F 11.0 °F 1019.2 in Calm   3.4 mph 66 % 0.0 in 0.0 W/m2 CLR
Lo Temps de Massalio
Compliments of Weather Underground - 1.25 mb